Location: Arboucave
(43.6130°N, 0.4343°W)
Time: 12:39:34
(UTC+00:00)

Cosmos 1428 Rocket - Pass Details

Date: 17 November 2025
Orbit: 948 x 986 km, 82.9° (Epoch: 10 December)

Event Time Altitude Azimuth Distance (km) Brightness Sun altitude
Rises 18:32:23 0° 352° (N) 3,683 7.5 -21.2°
Reaches altitude 10° 18:34:54 10° 353° (N) 2,736 6.8 -21.7°
Maximum altitude 18:41:12 84° 82° (E) 993 4.4 -22.8°
Drops below altitude 10° 18:47:29 10° 172° (S) 2,734 6.8 -23.9°
Sets 18:50:00 0° 172° (S) 3,679 7.5 -24.4°
